Home > Time Zones > World Clock > Weather > Russia > Ufa > Past weeks

Flag for Russia Weather past 2 weeks in Ufa, Russia

Now
55 °F

Partly sunny.


Feels Like: 53 °F
Forecast: 53 / 64 °F
Wind: 8 mph from Southwest

Location: Ufa

Current Time: Aug 30, 2014 at 8:14:06 AM

Latest Report: Aug 30, 2014 at 7:30 AM


Visibility: N/A

Pressure: 29.77 "Hg

Humidity: 77%

Dew point: 48 °F

Location of UfaLocation

Historic Weather in Ufa — Graph

°F

Ufa temperature yesterday

Maximum temperature yesterday: 82 °F (at 2:00 PM)
Minimum temperature yesterday: 59 °F (at 6:00 AM)
Average temperature yesterday: 69 °F

Past Weeks' High & Low Weather Summary

 TemperatureHumidityPressure
High93 °F (Aug 17, 3:00 PM)100% (Aug 15, 7:00 AM)30.15 "Hg (Aug 15, 7:00 AM)
Low45 °F (Aug 26, 6:30 AM)21% (Aug 17, 3:30 PM)29.50 "Hg (Aug 29, 5:30 PM)
Average68 °F74%29.86 "Hg
* Reported Aug 15 7:00 AM — Aug 30 7:00 AM, Ufa, Weather by CustomWeather, © 2014

Note: Actual official high and low records may vary slightly from our data, if they occured in-between our weather recording intervals... More about our weather records

Advertising

Ufa weather history for previous 24 hours

 ConditionsComfort  
Time TempWeatherWind HumidityBarometerVisibility
7:00 AM
Aug 30
55 °FPassing clouds.13 mph77%29.74 "HgN/A
6:30 AM57 °FPassing clouds.13 mph77%29.74 "HgN/A
6:00 AM59 °FPassing clouds.15 mph72%29.71 "HgN/A
5:30 AM59 °FOvercast.17 mph72%29.71 "HgN/A
5:00 AM59 °FOvercast.17 mph72%29.71 "HgN/A
4:30 AM59 °FOvercast.17 mph68%29.68 "HgN/A
4:00 AM59 °FOvercast.17 mph68%29.68 "HgN/A
3:30 AM59 °FPassing clouds.20 mph63%29.65 "HgN/A
3:00 AM59 °FClear.17 mph63%29.65 "Hg10 mi
1:00 AM61 °FClear.17 mph59%29.62 "Hg10 mi
12:30 AM63 °FClear.22 mph59%29.59 "Hg10 mi
12:00 AM64 °FPartly cloudy.26 mph56%29.59 "HgN/A
11:30 PM
Aug 29
66 °FPartly cloudy.26 mph52%29.59 "HgN/A
11:00 PM72 °FPartly cloudy.22 mph50%29.53 "HgN/A
10:30 PM73 °FPartly cloudy.20 mph53%29.50 "HgN/A
10:00 PM75 °FPartly cloudy.15 mph57%29.50 "HgN/A
9:30 PM75 °FPartly cloudy.17 mph54%29.50 "HgN/A
9:00 PM77 °FBroken clouds.17 mph51%29.50 "HgN/A
8:30 PM79 °FBroken clouds.17 mph51%29.50 "HgN/A
8:00 PM79 °FBroken clouds.22 mph51%29.50 "HgN/A
7:30 PM79 °FBroken clouds.20 mph54%29.50 "HgN/A
7:00 PM79 °FBroken clouds.20 mph54%29.50 "HgN/A
6:30 PM77 °FBroken clouds.20 mph57%29.50 "HgN/A
6:00 PM77 °FPartly sunny.20 mph57%29.50 "HgN/A
5:30 PM77 °FMostly cloudy.17 mph57%29.50 "HgN/A
5:00 PM77 °FPartly sunny.17 mph57%29.56 "HgN/A
4:30 PM77 °FBroken clouds.15 mph57%29.56 "HgN/A
4:00 PM79 °FBroken clouds.13 mph51%29.56 "HgN/A
3:30 PM79 °FBroken clouds.17 mph54%29.59 "HgN/A
3:00 PM79 °FBroken clouds.22 mph58%29.59 "HgN/A
2:30 PM81 °FBroken clouds.22 mph51%29.56 "HgN/A
2:00 PM82 °FBroken clouds.20 mph55%29.56 "HgN/A
1:30 PM79 °FBroken clouds.22 mph58%29.56 "HgN/A
1:00 PM77 °FBroken clouds.15 mph65%29.56 "HgN/A
12:30 PM75 °FBroken clouds.17 mph65%29.59 "HgN/A
12:00 PM73 °FBroken clouds.8 mph69%29.59 "HgN/A
11:30 AM70 °FPartly sunny.6 mph78%29.59 "HgN/A
11:00 AM70 °FPartly sunny.10 mph73%29.62 "HgN/A
10:30 AM66 °FPartly sunny.6 mph78%29.62 "HgN/A
10:00 AM63 °FPartly sunny.8 mph88%29.65 "HgN/A
9:30 AM61 °FPartly sunny.8 mph88%29.65 "HgN/A
9:00 AM61 °FPartly sunny.8 mph88%29.68 "HgN/A
8:30 AM59 °FPartly sunny.8 mph100%29.68 "HgN/A
8:00 AM59 °FMostly cloudy.6 mph94%29.71 "HgN/A
Weather by CustomWeather, © 2014

See weather overviewHow to use our weather pages